Location: downtown San Diego
(32.7310°N, 117.1990°W)
Time: 21:56:43
(UTC-07:00)

Cosmos 304 Rocket - Pass Details

Date: 12 July 2018
Orbit: 680 x 687 km, 74.0° (Epoch: 17 July)

Event Time Altitude Azimuth Distance (km) Brightness Sun altitude
Rises 21:09:53 0° 350° (N) 3,047 7.9 -13.5°
Reaches altitude 10° 21:12:17 10° 357° (N) 2,129 6.9 -13.9°
Maximum altitude 21:16:54 46° 70° (ENE) 916 4.2 -14.7°
Enters shadow 21:19:22 25° 131° (SE) 1,380 4.7 -15.1°
